Погода в Сусумане

Погода в Сусумане : погода сейчас, прогноз погоды и архив. Всё, что Вы хотите узнать о погоде в Сусумане!

Поиск расширенной информации на нашем сайте:

Другие новости

Новости СМИ2

Главная страница сайта

Новости сайта

03.07.2017

Напоминаем, что на нашем специализированном сайте Метеоцентр.Азия вы можете получить высокодетализированные автоматические прогнозы погоды по пунктам России, СНГ и мира в авиационном формате (включающие направление и скорость ветра, видимость, явления погоды, количество и форму облачности, нижнюю и верхнюю границу облачности).


Погода в Сусумане - сегодня

Время (UTC), дата Ветер
(°,м/с) 
Видим.   Явления Облачность Т
(°С)
Тd
(°С)
f(%) Тe
(°С)
Pmin
(гПа)
dP
(гПа)
Po
(мм)
O2
(г/м3)
Тmin Tmax R s Состояние
почвы
12 18.10.18 090 (В) 20000 м    ясно 
-26.3 -28.6 81 -27  1022  0.3  701  314           
15 18.10.18 080 (В) 20000 м    ясно 
-28.4 -30.9 79 -29  1023.1  0.2  701  317           
18 18.10.18 тихо ()   20000 м    ясно 
-29.8 -32.5 77 -30  1023.9  0.3  701  319           
00 19.10.18 020 (С) 20000 м    ясно 
-23.1 -25.8 78 -24  1022  701  310           
03 19.10.18 200 (Ю) 20000 м    ясно 
-16.8 -22.2 63 -17  1018.7  -1  701  302           
06 19.10.18 190 (Ю) 20000 м    ясно 
-15.4 -21 62 -15  1018.1  -0.2  701  301           
09 19.10.18 190 (Ю) 20000 м    ясно 
-24.4 -26.6 82 -25  1022  0.8  701  312    -14.2       
12 19.10.18 080 (В) 20000 м    ясно 
-26.6 -28.9 81 -27  1023.2  0.3  701  315           
15 19.10.18 030 (СВ) 20000 м    ясно 
-28.6 -31.1 79 -29  1024.2  0.2  701  317           
18 19.10.18 100 (В) 20000 м    ясно 
-29.1 -31.7 78 -30  1024.2  0.1  701  318           
00 20.10.18 тихо ()   20000 м    6/4 1000 м средняя 
[Sc|Ac trans]
-23.3 -25.6 81 -23  1023.4  0.4  702  311           
03 20.10.18 тихо ()   20000 м    9/3 1000 м средняя 
[Sc|Ac trans]
-18.1 -22.1 71 -18  1021  -0.4  702  304           
06 20.10.18 230 (ЮЗ) 20000 м    9/3 1000 м средняя 
[Sc|Ac trans]
-16.2 -20 72 -16  1020.8  0.4  702  302           
12 20.10.18 тихо ()   20000 м    9/3 1000 м средняя 
[Sc|Ac trans]
-15.8 -18.6 79 -16  1023.1  0.8  704  302           
15 20.10.18 060 (СВ) 20000 м    10/10 1080 м 
[Sc]
-16 -19.3 76 -18  1023.8  0.6  704  303           
18 20.10.18 060 (СВ) 20000 м    10/10 1110 м 
[Sc]
-17.6 -20.8 76 -20  1025.3  0.9  705  305           
21 20.10.18 050 (СВ) 20000 м    9/9 1170 м 
[Sc]
-20.5 -23.5 77 -25  1027.2  0.8  706  309  -20.5      26  неравномерный
сухой снег
100% 
03 21.10.18 050 (СВ) 20000 м    9/9 1170 м 
[Sc]
-17.1 -21.2 70 -21  1025.9  -0.5  706  305           
06 21.10.18 030 (СВ) 20000 м    10/10 1110 м 
[Sc]
-16.3 -20.5 70 -16  1025.5  -0.2  705  304           
12 21.10.18 050 (СВ) н/о    н/о 
-16.8 -20.3 74 -19  1025.8  706  304           
15 21.10.18 060 (СВ) н/о    н/о 
-18.7 -21.8 76 -21  1026.4  0.1  705  307           
18 21.10.18 070 (В) н/о    н/о 
-21.6 -24 81 -25  1027.5  0.1  706  310           
21 21.10.18 060 (СВ) н/о    н/о 
-25 -27.2 82 -28  1029.1  0.3  706  315  -25         
03 22.10.18 230 (ЮЗ) 20000 м    3/0 верхняя 
[Ci fib]
-15.6 -22.1 57 -16  1024.4  -1  705  303           
06 22.10.18 190 (Ю) 20000 м    ясно 
-15.8 -21.2 63 -16  1024  -0.5  704  303           
Время (UTC), дата Ветер
(°,м/с) 
Видим.   Явления Облачность Т
(°С)
Тd
(°С)
f(%) Тe
(°С)
Pmin
(гПа)
dP
(гПа)
Po
(мм)
O2
(г/м3)
Тmin Tmax R s Состояние
почвы

Для получения пояснительной информации подведите курсор к названию столбца.

ПОГОДА в Сусумане - архив

Всё, что Вы хотите узнать о погоде в Сусумане - удобно и подробно!

Выберите нужную дату (начиная с 1 января 2015* года) и нажмите кнопку "Найти".
Будут отображены архивные сводки погоды по пункту Сусуман, начиная с указанной даты.


Отображать данные в формате CSV (для использования в таблицах Excel)


Внимание! Наш архив погоды предназначен исключительно для личного некоммерческого использования в познавательных целях. Если Вам необходимы официальные справки о состоянии погоды (для производственных, юридических, коммерческих и т.п. целей), обращайтесь в органы Росгидромета.

*Примечание: данная дата относится к архиву по метеостанциям СССР (Россия, СНГ, Балтия).
Архив по метеостанциям Зарубежной Европы и Азии (кроме Китая) хранится 10 дней, по другим регионам земного шара (Китай, Африка, Америка, Австралия, Океания) - 1 день.

Сусуман - район местоположения метеостанции


Название, широта, долгота, высота метеостанции:
Сусуман 62.8°ш. 148.2°д. 655 м над ур. моря [Российская Федерация]

Дополнительная информация

В oтличие oт бoльшинства пoгoдных сайтoв мы публикуем пoдрoбную метеoинфoрмацию в детальнoм прoфессиoнальнoм фoрмате.

Характеристики температуры и влажнoсти вoздуха измеряются на высoте 2 м в тени вдали oт зданий и деревьев.
Скoрoсть ветра измеряется на высoте 10 м (на урoвне рoста челoвека скoрoсть ветра ниже в 1.5-2 раза). Если метеoстанция нахoдится в гoрoде или в лесу, тo скoрoсть ветра занижена на 2-4 м/с пo сравнению с oткрытым местoм. Скoрoсть ветра над акватoриями крупных рек и oзёр, а также на вершинах хoлмoв на 2-5 м/с выше, чем в oбычных услoвиях.
Атмoсфернoе давление в разных тoчках местнoсти мoжет значительнo oтличаться oт давления на метеoстанции, в зависимoсти oт услoвий рельефа (при пoдъёме на 10 м давление пoнижается примернo на 1 мм рт.ст.).